Cluster Samba

operational
NORAD ID: 26410 Int'l Des: 2000-041 Owner: ESA Country: I-ESA
HEOELLIPTICALRETROGRADEHEO_ELLIPTICAL

Über Cluster Samba

Beschreibung wird geladen...

Live-Position

3D-Globus wird geladen...

Nächste Überflüge

Höhenverlauf

Altitude vs Time

uPlot chart will show altitude changes over time

Zweizeiliger Elementsatz

1 26410U 00041A 26063.25310772 .00003639 00000-0 00000+0 0 9992
2 26410 148.9920 34.5676 8908777 250.6745 359.7226 0.44785609 19832
Epoch: 4. März 2026 • Age: 14 hours

Aktueller Status

Höhe 79276.1 km
Geschwindigkeit 1.95 km/s
Subsatellitenpunkt 22.93°N, 20.3°W
Startdatum 16. Juli 2000
Alter 25.6 years
Typ other

Technische Details

Klassifizierung Payload
Masse 1186.00 kg
Trockenmasse 550.00 kg
Gesamtmasse 1186.00 kg
Länge 1.30 m
Durchmesser 2.90 m
Spannweite 100.00 m
Form Cyl + 4 Ant
Hersteller ASTDF
Bus-Typ Cluster
Phasenstatus In Orbit
Besitzer/Staat ESA/I-ESA

Große Konstellationen

Loading constellations...